Radiation Dose at Monitoring Post of Fukushima Daini Nuclear Power Station
Date,Time,MP-1(microSv/h),MP-2(microSv/h),MP-3(microSv/h),MP-4(microSv/h),MP-5(microSv/h),MP-6(microSv/h),MP-7(microSv/h),Wind Direction,Wind Velocity(m/s),Rain
2015/10/21,00:00,0.509,0.291,0.526,0.487,0.456,0.239,0.208,north-northwest,6.6,No
2015/10/21,00:10,0.514,0.288,0.531,0.486,0.456,0.238,0.209,north-northwest,6.2,No
2015/10/21,00:20,0.510,0.290,0.526,0.488,0.458,0.239,0.209,north,4.8,No
2015/10/21,00:30,0.516,0.289,0.532,0.484,0.455,0.238,0.209,north-northeast,0.8,No
2015/10/21,00:40,0.511,0.290,0.527,0.490,0.458,0.239,0.209,west,0.5,No
2015/10/21,00:50,0.515,0.290,0.530,0.484,0.454,0.239,0.209,north,2.1,No
2015/10/21,01:00,0.511,0.289,0.528,0.487,0.457,0.238,0.208,north,1.5,No
2015/10/21,01:10,0.515,0.291,0.532,0.486,0.455,0.238,0.209,north,2.2,No
2015/10/21,01:20,0.511,0.290,0.528,0.488,0.458,0.239,0.209,north-northwest,3.9,No
2015/10/21,01:30,0.513,0.291,0.530,0.486,0.456,0.238,0.208,northwest,3.8,No
2015/10/21,01:40,0.513,0.290,0.529,0.487,0.454,0.240,0.209,north-northwest,3.6,No
2015/10/21,01:50,0.512,0.289,0.527,0.487,0.458,0.238,0.210,north-northwest,4.3,No
2015/10/21,02:00,0.514,0.290,0.531,0.487,0.456,0.238,0.208,north,4.6,No
2015/10/21,02:10,0.512,0.290,0.529,0.487,0.457,0.239,0.209,north,5.7,No
2015/10/21,02:20,0.515,0.290,0.532,0.485,0.457,0.238,0.210,north,5.7,No
2015/10/21,02:30,0.511,0.291,0.529,0.489,0.455,0.239,0.210,north,5.7,No
2015/10/21,02:40,0.515,0.290,0.532,0.486,0.456,0.238,0.209,north,5.9,No
2015/10/21,02:50,0.511,0.291,0.529,0.486,0.455,0.238,0.209,north,5.6,No
2015/10/21,03:00,0.514,0.290,0.530,0.488,0.459,0.239,0.210,north,5.2,No
2015/10/21,03:10,0.510,0.291,0.531,0.485,0.455,0.239,0.208,north,4.8,No
2015/10/21,03:20,0.512,0.290,0.530,0.489,0.456,0.239,0.210,north,5.0,No
2015/10/21,03:30,0.514,0.290,0.531,0.485,0.456,0.239,0.209,north,5.8,No
2015/10/21,03:40,0.511,0.291,0.527,0.488,0.456,0.237,0.208,north,6.2,No
2015/10/21,03:50,0.515,0.291,0.531,0.486,0.456,0.238,0.209,north,6.9,No
2015/10/21,04:00,0.512,0.290,0.530,0.484,0.455,0.238,0.209,north,8.0,No
2015/10/21,04:10,0.513,0.291,0.529,0.488,0.456,0.238,0.211,north,8.8,No
2015/10/21,04:20,0.511,0.290,0.529,0.485,0.458,0.238,0.209,north,8.0,No
2015/10/21,04:30,0.512,0.290,0.527,0.488,0.455,0.238,0.208,north,7.3,No
2015/10/21,04:40,0.515,0.292,0.533,0.488,0.457,0.238,0.209,north-northwest,7.4,No
2015/10/21,04:50,0.510,0.290,0.530,0.486,0.457,0.240,0.208,north-northwest,6.7,No
2015/10/21,05:00,0.514,0.291,0.530,0.489,0.455,0.239,0.209,north,6.5,No
2015/10/21,05:10,0.512,0.291,0.529,0.485,0.457,0.239,0.209,north,7.4,No
2015/10/21,05:20,0.515,0.290,0.529,0.486,0.455,0.238,0.210,north,7.3,No
2015/10/21,05:30,0.515,0.291,0.531,0.486,0.455,0.237,0.209,north,7.1,No
2015/10/21,05:40,0.513,0.290,0.528,0.484,0.457,0.239,0.211,north,6.9,No
2015/10/21,05:50,0.515,0.290,0.532,0.488,0.454,0.238,0.210,north,6.5,No
2015/10/21,06:00,0.513,0.291,0.530,0.485,0.455,0.237,0.208,north,6.4,No
2015/10/21,06:10,0.515,0.290,0.530,0.485,0.457,0.237,0.210,north,6.5,No
2015/10/21,06:20,0.514,0.290,0.530,0.486,0.454,0.238,0.208,north,6.7,No
2015/10/21,06:30,0.511,0.291,0.526,0.485,0.458,0.238,0.209,north,8.0,No
2015/10/21,06:40,0.515,0.289,0.532,0.488,0.456,0.239,0.209,north,7.3,No
2015/10/21,06:50,0.510,0.291,0.529,0.486,0.454,0.237,0.208,north-northwest,6.8,No
2015/10/21,07:00,0.513,0.290,0.529,0.486,0.457,0.238,0.208,north,7.2,No
2015/10/21,07:10,0.513,0.289,0.530,0.486,0.454,0.237,0.209,north,7.3,No
2015/10/21,07:20,0.511,0.291,0.527,0.483,0.455,0.239,0.208,north,6.5,No
2015/10/21,07:30,0.515,0.289,0.530,0.486,0.454,0.238,0.209,north,5.9,No
2015/10/21,07:40,0.510,0.290,0.528,0.482,0.453,0.238,0.207,north,5.7,No
2015/10/21,07:50,0.512,0.289,0.530,0.485,0.456,0.238,0.209,north-northwest,5.8,No
2015/10/21,08:00,0.512,0.288,0.529,0.481,0.453,0.238,0.206,north-northwest,5.1,No
2015/10/21,08:10,0.513,0.291,0.528,0.487,0.456,0.238,0.209,north-northwest,5.5,No
2015/10/21,08:20,0.514,0.287,0.530,0.484,0.456,0.237,0.207,north,4.8,No
2015/10/21,08:30,0.509,0.290,0.527,0.488,0.456,0.238,0.206,north,5.3,No
2015/10/21,08:40,0.514,0.287,0.531,0.482,0.455,0.237,0.210,north,5.8,No
2015/10/21,08:50,0.514,0.290,0.527,0.488,0.456,0.238,0.207,north,4.5,No
2015/10/21,09:00,0.515,0.287,0.532,0.482,0.456,0.237,0.208,north-northwest,5.3,No
2015/10/21,09:10,0.510,0.290,0.526,0.488,0.455,0.238,0.209,north,5.2,No
2015/10/21,09:20,0.509,0.288,0.530,0.482,0.457,0.238,0.208,north-northwest,4.9,No
2015/10/21,09:30,0.510,0.290,0.527,0.482,0.456,0.237,0.207,north,4.9,No
2015/10/21,09:40,0.506,0.289,0.528,0.485,0.452,0.237,0.208,north,4.1,No
2015/10/21,09:50,0.512,0.288,0.526,0.481,0.457,0.237,0.208,north,5.0,No
2015/10/21,10:00,0.509,0.290,0.529,0.479,0.451,0.238,0.207,north,5.8,No
2015/10/21,10:10,0.508,0.286,0.527,0.487,0.455,0.239,0.209,north,5.4,No
2015/10/21,10:20,0.514,0.290,0.529,0.484,0.456,0.239,0.208,north,5.0,No
2015/10/21,10:30,0.508,0.289,0.524,0.479,0.452,0.238,0.207,north,5.3,No
2015/10/21,10:40,0.510,0.287,0.530,0.483,0.458,0.238,0.210,north-northeast,5.2,No
2015/10/21,10:50,0.513,0.290,0.525,0.487,0.456,0.237,0.209,north-northeast,4.4,No
2015/10/21,11:00,0.507,0.287,0.527,0.482,0.452,0.238,0.207,north,3.6,No
2015/10/21,11:10,0.511,0.289,0.526,0.480,0.456,0.239,0.207,north,4.5,No
2015/10/21,11:20,0.512,0.291,0.523,0.486,0.459,0.238,0.210,north,2.9,No
2015/10/21,11:30,0.508,0.288,0.530,0.489,0.454,0.239,0.208,north,3.3,No
2015/10/21,11:40,0.514,0.292,0.525,0.485,0.456,0.238,0.207,north,4.2,No
2015/10/21,11:50,0.512,0.290,0.525,0.480,0.459,0.239,0.208,northeast,3.9,No
2015/10/21,12:00,0.512,0.288,0.531,0.486,0.456,0.238,0.208,north-northeast,3.6,No
2015/10/21,12:10,0.517,0.292,0.528,0.490,0.454,0.240,0.207,northeast,3.9,No
2015/10/21,12:20,0.510,0.289,0.525,0.484,0.459,0.239,0.210,north-northeast,2.4,No
2015/10/21,12:30,0.515,0.290,0.528,0.481,0.456,0.238,0.209,east-northeast,2.8,No
2015/10/21,12:40,0.512,0.292,0.528,0.482,0.452,0.238,0.207,north-northeast,2.1,No
2015/10/21,12:50,0.516,0.288,0.525,0.490,0.455,0.238,0.209,northeast,2.1,No
2015/10/21,13:00,0.513,0.289,0.530,0.488,0.458,0.239,0.210,northeast,1.8,No
2015/10/21,13:10,0.513,0.291,0.531,0.481,0.456,0.238,0.207,northeast,1.6,No
2015/10/21,13:20,0.514,0.287,0.528,0.483,0.453,0.239,0.208,east-northeast,2.7,No
2015/10/21,13:30,0.509,0.292,0.533,0.492,0.456,0.238,0.210,northeast,2.2,No
2015/10/21,13:40,0.516,0.290,0.526,0.488,0.459,0.239,0.208,northeast,1.9,No
2015/10/21,13:50,0.511,0.291,0.533,0.483,0.456,0.239,0.210,east-northeast,1.7,No
2015/10/21,14:00,0.512,0.292,0.531,0.490,0.456,0.238,0.209,northeast,1.3,No
2015/10/21,14:10,0.512,0.290,0.530,0.487,0.460,0.238,0.209,northeast,2.3,No
2015/10/21,14:20,0.513,0.291,0.530,0.489,0.455,0.239,0.210,east-northeast,1.5,No
2015/10/21,14:30,0.514,0.291,0.528,0.489,0.462,0.240,0.209,east-northeast,0.7,No
2015/10/21,14:40,0.510,0.291,0.532,0.487,0.455,0.237,0.210,southeast,1.2,No
2015/10/21,14:50,0.514,0.289,0.527,0.491,0.459,0.239,0.208,east-southeast,0.9,No
2015/10/21,15:00,0.508,0.291,0.531,0.486,0.458,0.239,0.209,south-southeast,1.2,No
2015/10/21,15:10,0.516,0.290,0.528,0.490,0.456,0.239,0.208,south-southeast,0.9,No
2015/10/21,15:20,0.512,0.291,0.531,0.488,0.461,0.239,0.209,southeast,1.1,No
2015/10/21,15:30,0.513,0.291,0.531,0.491,0.455,0.239,0.209,southeast,1.8,No
2015/10/21,15:40,0.511,0.289,0.528,0.486,0.461,0.239,0.209,southeast,1.5,No
2015/10/21,15:50,0.510,0.291,0.531,0.489,0.455,0.238,0.208,south-southeast,2.0,No
2015/10/21,16:00,0.513,0.290,0.527,0.490,0.459,0.239,0.210,southeast,2.2,No
2015/10/21,16:10,0.510,0.291,0.535,0.488,0.456,0.238,0.209,southeast,2.3,No
2015/10/21,16:20,0.516,0.289,0.526,0.488,0.461,0.240,0.210,southeast,2.6,No
2015/10/21,16:30,0.510,0.290,0.531,0.485,0.455,0.238,0.209,south-southeast,3.0,No
2015/10/21,16:40,0.516,0.289,0.526,0.489,0.460,0.238,0.209,south-southeast,2.8,No
2015/10/21,16:50,0.512,0.291,0.534,0.486,0.457,0.238,0.209,south-southeast,2.6,No
2015/10/21,17:00,0.516,0.290,0.528,0.489,0.459,0.238,0.208,south-southeast,1.6,No
2015/10/21,17:10,0.511,0.291,0.532,0.484,0.458,0.238,0.209,south-southeast,2.0,No
2015/10/21,17:20,0.514,0.289,0.529,0.489,0.459,0.240,0.209,south,2.2,No
2015/10/21,17:30,0.512,0.291,0.534,0.485,0.456,0.237,0.209,south,3.0,No
2015/10/21,17:40,0.515,0.290,0.527,0.491,0.459,0.239,0.210,south-southeast,3.2,No
2015/10/21,17:50,0.510,0.291,0.534,0.485,0.456,0.238,0.208,south,2.2,No
2015/10/21,18:00,0.515,0.290,0.528,0.490,0.457,0.238,0.210,south-southwest,3.4,No
2015/10/21,18:10,0.511,0.290,0.533,0.486,0.459,0.239,0.209,south-southwest,3.4,No
2015/10/21,18:20,0.514,0.290,0.528,0.490,0.457,0.238,0.209,south-southwest,3.6,No
2015/10/21,18:30,0.512,0.291,0.533,0.485,0.456,0.239,0.208,south,4.1,No
2015/10/21,18:40,0.513,0.290,0.526,0.489,0.459,0.240,0.209,south,4.5,No
2015/10/21,18:50,0.512,0.290,0.534,0.486,0.457,0.239,0.209,south,4.5,No
2015/10/21,19:00,0.513,0.291,0.530,0.490,0.457,0.239,0.210,south-southwest,4.2,No
2015/10/21,19:10,0.512,0.289,0.533,0.487,0.457,0.239,0.209,south-southwest,3.8,No
2015/10/21,19:20,0.512,0.291,0.527,0.490,0.458,0.239,0.208,south-southwest,3.9,No
2015/10/21,19:30,0.512,0.289,0.533,0.487,0.457,0.238,0.210,south-southwest,4.7,No
2015/10/21,19:40,0.512,0.292,0.528,0.489,0.457,0.238,0.209,south-southwest,5.4,No
2015/10/21,19:50,0.514,0.289,0.532,0.488,0.459,0.238,0.209,south-southwest,6.3,No
2015/10/21,20:00,0.512,0.292,0.527,0.490,0.458,0.241,0.209,south-southwest,6.4,No
2015/10/21,20:10,0.512,0.289,0.531,0.486,0.457,0.239,0.209,south,5.7,No
2015/10/21,20:20,0.512,0.292,0.526,0.491,0.459,0.238,0.209,south-southwest,5.7,No
2015/10/21,20:30,0.512,0.289,0.534,0.485,0.456,0.238,0.209,south-southwest,6.7,No
2015/10/21,20:40,0.513,0.291,0.528,0.488,0.460,0.238,0.210,south-southwest,6.5,No
2015/10/21,20:50,0.511,0.290,0.535,0.487,0.457,0.239,0.209,south-southwest,7.8,No
2015/10/21,21:00,0.512,0.291,0.527,0.491,0.460,0.237,0.209,south-southwest,7.1,No
2015/10/21,21:10,0.512,0.290,0.533,0.486,0.456,0.239,0.208,south-southwest,7.4,No
2015/10/21,21:20,0.513,0.291,0.528,0.490,0.462,0.238,0.209,south-southwest,7.1,No
2015/10/21,21:30,0.512,0.292,0.533,0.488,0.456,0.239,0.208,south-southwest,5.6,No
2015/10/21,21:40,0.513,0.290,0.528,0.489,0.459,0.238,0.208,south-southwest,5.6,No
2015/10/21,21:50,0.510,0.292,0.533,0.488,0.456,0.239,0.210,south,7.2,No
2015/10/21,22:00,0.513,0.291,0.527,0.490,0.461,0.239,0.208,south,8.1,No
2015/10/21,22:10,0.511,0.292,0.534,0.490,0.456,0.239,0.209,south-southwest,8.4,No
2015/10/21,22:20,0.515,0.290,0.530,0.487,0.460,0.238,0.209,south-southwest,8.8,No
2015/10/21,22:30,0.510,0.291,0.532,0.490,0.456,0.238,0.209,south-southwest,9.2,No
2015/10/21,22:40,0.514,0.292,0.529,0.487,0.457,0.239,0.210,south-southwest,8.6,No
2015/10/21,22:50,0.513,0.290,0.531,0.491,0.457,0.239,0.209,south-southwest,8.4,No
2015/10/21,23:00,0.515,0.291,0.530,0.486,0.458,0.241,0.209,south-southwest,8.1,No
2015/10/21,23:10,0.511,0.290,0.530,0.488,0.460,0.238,0.209,south-southwest,7.5,No
2015/10/21,23:20,0.513,0.291,0.532,0.488,0.455,0.239,0.209,south-southwest,7.9,No
2015/10/21,23:30,0.512,0.291,0.528,0.491,0.460,0.239,0.209,south-southwest,8.2,No
2015/10/21,23:40,0.513,0.290,0.533,0.488,0.457,0.239,0.209,south-southwest,7.7,No
2015/10/21,23:50,0.512,0.291,0.529,0.488,0.460,0.238,0.209,south-southwest,7.8,No
